Regional Weather Roundup
Issued by NWS Kansas City/Pleasant Hill, MO

Home | Current Version | Previous Version | Text Only | Print | Product List | Glossary On
Versions: 1 2 3 4 5 6 7 8 9 10 11 12 13 14 15 16 17 18 19 20 21 22 23 24 25 26 27 28 29 30 31 32 33 34 35 36 37 38 39 40 41 42 43 44 45 46 47 48 49 50
000
ASUS43 KEAX 280810
RWREAX

WEATHER ROUNDUP FOR EASTERN KANSAS AND NORTHWEST MISSOURI
NATIONAL WEATHER SERVICE KANSAS CITY/PLEASANT HILL MO
200 AM CST SUN DEC 28 2014

KSZ040-057-103>105-MOZ028-029-037-043-280900-
...KANSAS CITY METROPOLITAN AREA...

CITY           SKY/WX    TMP DP  RH WIND       PRES   REMARKS
K.C. INTL      CLEAR     21  18  88 W6        30.24F WCI  13
K.C. DOWNTOWN  CLEAR     25  18  74 NW3       30.26F
LEES SUMMIT    CLEAR     22  18  85 W3        30.24F
OLATHE - IXD   CLEAR     20  16  84 W6        30.25F WCI  12
OLATHE - OJC   CLEAR     20  18  92 W3        30.24F
LAWRENCE       CLEAR     15  13  91 CALM      30.27S

$$

MOZ001>008-011>017-020>025-030>033-038>040-044>046-053-054-280900-
...NORTHERN AND CENTRAL MISSOURI...

CITY           SKY/WX    TMP DP  RH WIND       PRES   REMARKS
ST. JOSEPH     CLEAR     19  16  88 S7        30.26S WCI  10
MOSBY            N/A     21  19  93 CALM      30.26S
WARRENSBURG    CLEAR     21  19  93 CALM      30.26R
WHITEMAN AFB   NOT AVBL
CLINTON        PTCLDY    27  23  86 CALM      30.27S
SEDALIA        CLEAR     25  21  85 NW3       30.25S
WARSAW         NOT AVBL
MARSHALL       CLEAR     27  23  86 CALM      30.25F
CHILLICOTHE      N/A     22  18  85 CALM      30.26S
MOBERLY        CLOUDY    28  21  74 W8        30.23F WCI  20
KIRKSVILLE     CLEAR     23  21  92 W5        30.22S WCI  17

$$

MOZ041-047>049-056>058-063>065-088>090-097-280900-
...EASTERN AND SOUTHERN MISSOURI...

CITY           SKY/WX    TMP DP  RH WIND       PRES   REMARKS
ST. LOUIS INTL CLOUDY    34  26  72 NW8       30.21R WCI  27
SPIRIT OF STL  CLOUDY    32  26  78 W5        30.22R WCI  27
COLUMBIA       CLOUDY    28  22  78 NW9       30.23S WCI  19
JEFFERSON CITY CLOUDY    30  23  75 NW12      30.25S WCI  20
MEXICO         CLOUDY    30  27  86 W7        30.22S WCI  23
HANNIBAL       CLOUDY    30  21  69 W8        30.22R WCI  23
ROLLA          CLOUDY    29  24  82 W7        30.20R WCI  22
LEBANON        CLOUDY    28  23  80 CALM      30.23R
OSAGE BEACH    CLOUDY    28  23  80 CALM      30.23S
SPRINGFIELD    CLOUDY    27  23  85 NW7       30.23S WCI  19
BRANSON        CLOUDY    28  25  86 NW7       30.24R WCI  21
NEVADA         CLEAR     23  19  86 CALM      30.28S
JOPLIN         MOCLDY    23  20  88 CALM      30.27F
WEST PLAINS    CLOUDY    31  27  85 NW8       30.20R WCI  23

$$

IAZ060-094-KSZ022-034>040-054-083-096-NEZ052-066-093-280900-
...KANSAS...SOUTHEAST NEBRASKA AND IOWA...

CITY           SKY/WX    TMP DP  RH WIND       PRES   REMARKS
TOPEKA         CLEAR     21  18  88 S3        30.27S
MANHATTAN      CLEAR     17  14  88 CALM      30.25F
EMPORIA        CLEAR     17  14  88 SW6       30.25F WCI   9
CHANUTE        CLEAR     21  18  88 NW5       30.27F WCI  15
WICHITA        CLEAR     17  12  80 SW3       30.26F
OMAHA          CLEAR     19  14  81 S5        30.19F WCI  12
LINCOLN        CLEAR     16  12  84 SW3       30.19F
FALLS CITY     CLEAR     19  15  84 SW8       30.22F WCI   9
LAMONI         CLEAR     16  13  88 SW6       30.19F WCI   7
DES MOINES     CLEAR     18  13  80 SW5       30.20S WCI  11

$$



USA.gov is the U.S. government's official web portal to all federal, state and local government web resources and services.